| time (UTC) | temp C | wind direction | speed KPH | gust KPH | rain 1hr cm | rain 24hr cm | rain mn cm | humidity % | barometer mb |
| 20260905071752 | 13 | 275 | 0.0 | 1.6 | 0.00 | 0.00 | 0.00 | 84 | 1022.5 |
| 20260905070752 | 13 | 295 | 0.0 | 0.0 | 0.00 | 0.00 | 0.00 | 84 | 1022.5 |
| 20260905070254 | 13 | 295 | 0.0 | 0.0 | 0.00 | 0.00 | 0.00 | 85 | 1022.5 |
| 20260905065253 | 13 | 277 | 0.0 | 1.6 | 0.00 | 0.00 | 0.00 | 85 | 1022.5 |
| 20260905064754 | 13 | 273 | 0.0 | 1.6 | 0.00 | 0.00 | 0.00 | 86 | 1022.4 |
| 20260905064253 | 13 | 302 | 1.6 | 4.8 | 0.00 | 0.00 | 0.00 | 86 | 1022.4 |
| 20260905063752 | 13 | 292 | 0.0 | 3.2 | 0.00 | 0.00 | 0.00 | 86 | 1022.4 |
| 20260905062753 | 13 | 295 | 1.6 | 8.0 | 0.00 | 0.00 | 0.00 | 86 | 1022.3 |
| 20260905062253 | 13 | 309 | 1.6 | 4.8 | 0.00 | 0.00 | 0.00 | 86 | 1022.3 |
| 20260905061752 | 13 | 282 | 3.2 | 8.0 | 0.00 | 0.00 | 0.00 | 86 | 1022.2 |
| 20260905055753 | 12 | 282 | 3.2 | 9.7 | 0.00 | 0.00 | 0.00 | 86 | 1022.1 |
| 20260905055254 | 12 | 284 | 0.0 | 3.2 | 0.00 | 0.00 | 0.00 | 85 | 1022.0 |
| 20260905054253 | 12 | 285 | 0.0 | 1.6 | 0.00 | 0.00 | 0.00 | 86 | 1022.0 |
| 20260905053753 | 12 | 279 | 0.0 | 4.8 | 0.00 | 0.00 | 0.00 | 86 | 1022.0 |
| 20260905053255 | 12 | 273 | 1.6 | 4.8 | 0.00 | 0.00 | 0.00 | 85 | 1021.9 |
| 20260905052253 | 12 | 288 | 1.6 | 9.7 | 0.00 | 0.00 | 0.00 | 85 | 1021.9 |
| 20260905051754 | 12 | 288 | 3.2 | 4.8 | 0.00 | 0.00 | 0.00 | 85 | 1021.9 |
| 20260905051253 | 12 | 281 | 3.2 | 8.0 | 0.00 | 0.00 | 0.00 | 85 | 1021.8 |
| 20260905050254 | 12 | 295 | 0.0 | 3.2 | 0.00 | 0.00 | 0.00 | 85 | 1021.8 |
| 20260905045754 | 12 | 301 | 0.0 | 4.8 | 0.00 | 0.00 | 0.00 | 85 | 1021.7 |
| 20260905045254 | 12 | 294 | 0.0 | 3.2 | 0.00 | 0.00 | 0.00 | 85 | 1021.7 |
| 20260905044753 | 12 | 308 | 0.0 | 1.6 | 0.00 | 0.00 | 0.00 | 84 | 1021.7 |
| 20260905044255 | 12 | 304 | 0.0 | 1.6 | 0.00 | 0.00 | 0.00 | 84 | 1021.6 |
| 20260905043753 | 12 | 308 | 0.0 | 0.0 | 0.00 | 0.00 | 0.00 | 84 | 1021.6 |
| 20260905043255 | 12 | 316 | 0.0 | 4.8 | 0.00 | 0.00 | 0.00 | 84 | 1021.6 |
| 20260905042755 | 12 | 280 | 1.6 | 3.2 | 0.00 | 0.00 | 0.00 | 84 | 1021.6 |
| 20260905042254 | 12 | 261 | 0.0 | 1.6 | 0.00 | 0.00 | 0.00 | 84 | 1021.6 |
| 20260905041754 | 12 | 272 | 0.0 | 3.2 | 0.00 | 0.00 | 0.00 | 84 | 1021.4 |
| 20260905041255 | 12 | 287 | 1.6 | 4.8 | 0.00 | 0.00 | 0.00 | 85 | 1021.4 |
| 20260905040755 | 12 | 287 | 0.0 | 1.6 | 0.00 | 0.00 | 0.00 | 85 | 1021.4 |
| 20260905035755 | 12 | 283 | 0.0 | 3.2 | 0.00 | 0.00 | 0.00 | 84 | 1021.3 |
| 20260905034754 | 12 | 285 | 1.6 | 4.8 | 0.00 | 0.00 | 0.00 | 83 | 1021.4 |
| 20260905034254 | 12 | 278 | 0.0 | 3.2 | 0.00 | 0.00 | 0.00 | 83 | 1021.3 |
| 20260905033756 | 12 | 264 | 0.0 | 1.6 | 0.00 | 0.00 | 0.00 | 82 | 1021.3 |
| 20260905033254 | 12 | 294 | 0.0 | 0.0 | 0.00 | 0.00 | 0.00 | 82 | 1021.2 |
| 20260905032755 | 13 | 294 | 0.0 | 1.6 | 0.00 | 0.00 | 0.00 | 82 | 1021.2 |
| 20260905032255 | 13 | 277 | 0.0 | 1.6 | 0.00 | 0.00 | 0.00 | 82 | 1021.1 |
| 20260905031756 | 13 | 287 | 0.0 | 1.6 | 0.00 | 0.00 | 0.00 | 83 | 1021.2 |
| 20260905031255 | 12 | 284 | 1.6 | 3.2 | 0.00 | 0.00 | 0.00 | 83 | 1021.2 |
| 20260905030754 | 12 | 291 | 1.6 | 3.2 | 0.00 | 0.00 | 0.00 | 84 | 1021.2 |
| 20260905030255 | 12 | 302 | 0.0 | 1.6 | 0.00 | 0.00 | 0.00 | 84 | 1021.1 |
| 20260905025754 | 12 | 273 | 0.0 | 1.6 | 0.00 | 0.00 | 0.00 | 84 | 1021.0 |
| 20260905025255 | 12 | 285 | 0.0 | 1.6 | 0.00 | 0.00 | 0.00 | 84 | 1021.0 |
| 20260905024754 | 12 | 267 | 0.0 | 1.6 | 0.00 | 0.00 | 0.00 | 84 | 1020.9 |
| 20260905024254 | 12 | 286 | 0.0 | 1.6 | 0.00 | 0.00 | 0.00 | 84 | 1020.9 |
| 20260905023754 | 12 | 303 | 0.0 | 0.0 | 0.00 | 0.00 | 0.00 | 84 | 1020.8 |
| 20260905023256 | 12 | 298 | 0.0 | 1.6 | 0.00 | 0.00 | 0.00 | 84 | 1020.9 |
| 20260905022754 | 12 | 301 | 0.0 | 3.2 | 0.00 | 0.00 | 0.00 | 84 | 1020.9 |
| 20260905022256 | 12 | 306 | 1.6 | 3.2 | 0.00 | 0.00 | 0.00 | 85 | 1020.9 |
| 20260905021755 | 12 | 295 | 0.0 | 3.2 | 0.00 | 0.03 | 0.00 | 86 | 1020.9 |
| 20260905021255 | 12 | 257 | 0.0 | 1.6 | 0.00 | 0.03 | 0.00 | 86 | 1020.9 |
| 20260905020755 | 12 | 258 | 0.0 | 1.6 | 0.00 | 0.03 | 0.00 | 86 | 1020.9 |
| 20260905020255 | 12 | 168 | 0.0 | 1.6 | 0.00 | 0.03 | 0.00 | 86 | 1020.8 |
| 20260905015756 | 12 | 235 | 0.0 | 1.6 | 0.00 | 0.03 | 0.00 | 86 | 1020.8 |
| 20260905015255 | 12 | 233 | 0.0 | 1.6 | 0.00 | 0.03 | 0.00 | 86 | 1020.8 |
| 20260905014755 | 12 | 290 | 0.0 | 3.2 | 0.00 | 0.03 | 0.00 | 86 | 1020.8 |
| 20260905014255 | 12 | 293 | 0.0 | 1.6 | 0.00 | 0.03 | 0.00 | 86 | 1020.7 |
| 20260905013756 | 12 | 291 | 0.0 | 3.2 | 0.00 | 0.03 | 0.00 | 86 | 1020.7 |
| 20260905013255 | 12 | 272 | 0.0 | 1.6 | 0.00 | 0.05 | 0.00 | 87 | 1020.7 |
| 20260905012755 | 12 | 35 | 0.0 | 1.6 | 0.00 | 0.05 | 0.00 | 87 | 1020.6 |
| 20260905012256 | 11 | 303 | 0.0 | 3.2 | 0.00 | 0.05 | 0.00 | 87 | 1020.6 |
| 20260905011756 | 11 | 290 | 0.0 | 3.2 | 0.00 | 0.05 | 0.00 | 87 | 1020.5 |
| 20260905011256 | 11 | 299 | 0.0 | 3.2 | 0.00 | 0.05 | 0.00 | 88 | 1020.6 |
| 20260905010256 | 11 | 133 | 0.0 | 1.6 | 0.00 | 0.05 | 0.00 | 87 | 1020.6 |
| 20260905005756 | 11 | 132 | 0.0 | 1.6 | 0.00 | 0.05 | 0.00 | 87 | 1020.6 |
| 20260905005256 | 11 | 132 | 0.0 | 0.0 | 0.00 | 0.05 | 0.00 | 86 | 1020.5 |
| 20260905004756 | 11 | 132 | 0.0 | 0.0 | 0.00 | 0.05 | 0.00 | 85 | 1020.4 |
| 20260905004255 | 11 | 132 | 0.0 | 0.0 | 0.00 | 0.05 | 0.00 | 84 | 1020.4 |
| 20260905003757 | 11 | 132 | 0.0 | 0.0 | 0.00 | 0.05 | 0.00 | 84 | 1020.4 |
| 20260905003256 | 11 | 132 | 0.0 | 0.0 | 0.00 | 0.05 | 0.00 | 83 | 1020.4 |
| 20260905002757 | 12 | 132 | 0.0 | 1.6 | 0.00 | 0.05 | 0.00 | 82 | 1020.4 |
| 20260905002255 | 12 | 140 | 0.0 | 1.6 | 0.00 | 0.05 | 0.00 | 82 | 1020.3 |
| 20260905001756 | 12 | 234 | 0.0 | 3.2 | 0.00 | 0.05 | 0.00 | 81 | 1020.2 |
| 20260905001255 | 13 | 285 | 1.6 | 8.0 | 0.00 | 0.05 | 0.00 | 81 | 1020.2 |
| 20260905000756 | 13 | 292 | 4.8 | 11.3 | 0.00 | 0.05 | 0.00 | 81 | 1020.2 |
| 20260905000257 | 13 | 289 | 3.2 | 9.7 | 0.00 | 0.05 | 0.00 | 80 | 1020.2 |
| 20260904234256 | 12 | 285 | 3.2 | 9.7 | 0.00 | 0.05 | 0.00 | 81 | 1020.2 |
| 20260904233757 | 12 | 283 | 3.2 | 9.7 | 0.00 | 0.05 | 0.00 | 81 | 1020.2 |
| 20260904233256 | 12 | 282 | 1.6 | 4.8 | 0.00 | 0.05 | 0.00 | 81 | 1020.1 |
| 20260904232757 | 12 | 293 | 1.6 | 4.8 | 0.00 | 0.05 | 0.00 | 81 | 1020.0 |
| 20260904232258 | 12 | 293 | 1.6 | 8.0 | 0.00 | 0.05 | 0.00 | 81 | 1020.0 |
| 20260904231257 | 12 | 280 | 3.2 | 4.8 | 0.00 | 0.05 | 0.00 | 81 | 1019.9 |
| 20260904230816 | 12 | 303 | 1.6 | 3.2 | 0.00 | 0.05 | 0.00 | 81 | 1019.9 |
| 20260904230257 | 12 | 276 | 1.6 | 3.2 | 0.00 | 0.05 | 0.00 | 81 | 1019.9 |
| 20260904225758 | 12 | 226 | 0.0 | 1.6 | 0.00 | 0.05 | 0.05 | 81 | 1019.9 |
| 20260904225256 | 13 | 273 | 0.0 | 8.0 | 0.00 | 0.05 | 0.05 | 80 | 1019.8 |
| 20260904224758 | 13 | 304 | 0.0 | 0.0 | 0.00 | 0.05 | 0.05 | 80 | 1019.8 |
| 20260904224256 | 13 | 302 | 0.0 | 1.6 | 0.00 | 0.05 | 0.05 | 80 | 1019.8 |
| 20260904223757 | 13 | 282 | 1.6 | 4.8 | 0.00 | 0.05 | 0.05 | 80 | 1019.8 |
| 20260904223258 | 13 | 283 | 1.6 | 4.8 | 0.00 | 0.08 | 0.05 | 80 | 1019.9 |
| 20260904222757 | 13 | 291 | 3.2 | 8.0 | 0.00 | 0.08 | 0.05 | 81 | 1019.8 |
| 20260904221758 | 13 | 302 | 1.6 | 8.0 | 0.00 | 0.08 | 0.05 | 81 | 1019.8 |
| 20260904221256 | 13 | 279 | 1.6 | 3.2 | 0.00 | 0.10 | 0.05 | 81 | 1019.8 |
| 20260904220257 | 13 | 293 | 3.2 | 4.8 | 0.00 | 0.13 | 0.05 | 80 | 1019.9 |
| 20260904215758 | 13 | 282 | 1.6 | 3.2 | 0.00 | 0.15 | 0.05 | 80 | 1019.8 |
| 20260904215257 | 13 | 294 | 1.6 | 3.2 | 0.00 | 0.15 | 0.05 | 80 | 1019.8 |
| 20260904213758 | 13 | 288 | 1.6 | 9.7 | 0.00 | 0.23 | 0.05 | 80 | 1019.8 |
| 20260904213257 | 14 | 282 | 3.2 | 9.7 | 0.00 | 0.23 | 0.05 | 80 | 1019.8 |
| 20260904212257 | 14 | 283 | 4.8 | 11.3 | 0.00 | 0.23 | 0.05 | 80 | 1019.6 |
| 20260904211758 | 14 | 287 | 6.4 | 9.7 | 0.00 | 0.25 | 0.05 | 80 | 1019.6 |
| 20260904211257 | 14 | 289 | 4.8 | 9.7 | 0.00 | 0.25 | 0.05 | 80 | 1019.7 |
| 20260904210757 | 14 | 287 | 1.6 | 9.7 | 0.00 | 0.28 | 0.05 | 80 | 1019.6 |
| 20260904210259 | 14 | 286 | 1.6 | 4.8 | 0.00 | 0.30 | 0.05 | 80 | 1019.7 |
| 20260904205759 | 14 | 286 | 0.0 | 3.2 | 0.00 | 0.30 | 0.05 | 80 | 1019.6 |
| 20260904205257 | 14 | 292 | 0.0 | 1.6 | 0.00 | 0.33 | 0.05 | 80 | 1019.6 |
| 20260904204758 | 14 | 291 | 0.0 | 1.6 | 0.00 | 0.36 | 0.05 | 79 | 1019.6 |
| 20260904204257 | 14 | 289 | 1.6 | 4.8 | 0.00 | 0.43 | 0.05 | 79 | 1019.6 |
| 20260904202759 | 14 | 271 | 1.6 | 4.8 | 0.00 | 0.61 | 0.05 | 79 | 1019.4 |
| 20260904202259 | 14 | 288 | 3.2 | 8.0 | 0.00 | 0.66 | 0.05 | 79 | 1019.3 |
| 20260904201758 | 14 | 281 | 3.2 | 4.8 | 0.00 | 0.71 | 0.05 | 79 | 1019.3 |
| 20260904200759 | 15 | 288 | 1.6 | 3.2 | 0.00 | 0.79 | 0.05 | 78 | 1019.2 |
| 20260904200257 | 15 | 295 | 0.0 | 1.6 | 0.00 | 0.81 | 0.05 | 78 | 1019.0 |
| 20260904195759 | 15 | 202 | 0.0 | 1.6 | 0.00 | 0.86 | 0.05 | 78 | 1019.0 |
| 20260904195257 | 15 | 152 | 0.0 | 3.2 | 0.00 | 0.86 | 0.05 | 77 | 1018.9 |
| 20260904194759 | 15 | 274 | 0.0 | 3.2 | 0.00 | 0.89 | 0.05 | 77 | 1018.9 |
| 20260904194257 | 15 | 293 | 0.0 | 4.8 | 0.00 | 0.89 | 0.05 | 77 | 1018.8 |
| 20260904193759 | 15 | 277 | 0.0 | 3.2 | 0.00 | 0.89 | 0.05 | 77 | 1018.6 |
| 20260904193259 | 15 | 299 | 0.0 | 8.0 | 0.00 | 0.89 | 0.05 | 76 | 1018.5 |
| 20260904192758 | 15 | 284 | 0.0 | 3.2 | 0.00 | 0.89 | 0.05 | 76 | 1018.4 |
| 20260904191758 | 15 | 265 | 1.6 | 3.2 | 0.00 | 0.89 | 0.05 | 76 | 1018.2 |
| 20260904191258 | 16 | 272 | 1.6 | 9.7 | 0.00 | 0.89 | 0.05 | 76 | 1018.1 |
| 20260904190800 | 16 | 282 | 1.6 | 4.8 | 0.00 | 0.89 | 0.05 | 77 | 1018.0 |
| 20260904185758 | 16 | 280 | 0.0 | 8.0 | 0.00 | 0.89 | 0.05 | 76 | 1018.0 |
| 20260904185258 | 16 | 282 | 3.2 | 9.7 | 0.00 | 0.89 | 0.05 | 76 | 1018.0 |
| 20260904184759 | 16 | 282 | 4.8 | 9.7 | 0.00 | 0.89 | 0.05 | 76 | 1017.9 |
| 20260904184259 | 17 | 283 | 3.2 | 9.7 | 0.00 | 0.89 | 0.05 | 76 | 1017.9 |
| 20260904183759 | 17 | 278 | 4.8 | 9.7 | 0.00 | 0.89 | 0.05 | 75 | 1017.9 |
| 20260904183259 | 17 | 273 | 4.8 | 9.7 | 0.00 | 0.89 | 0.05 | 74 | 1017.7 |
| 20260904182759 | 17 | 291 | 6.4 | 12.9 | 0.00 | 0.89 | 0.05 | 73 | 1017.7 |
| 20260904182258 | 17 | 286 | 9.7 | 16.1 | 0.00 | 0.89 | 0.05 | 72 | 1017.7 |
| 20260904181758 | 17 | 288 | 8.0 | 14.5 | 0.00 | 0.89 | 0.05 | 72 | 1017.5 |
| 20260904181258 | 17 | 271 | 8.0 | 16.1 | 0.00 | 0.89 | 0.05 | 72 | 1017.5 |
| 20260904180759 | 17 | 292 | 6.4 | 14.5 | 0.00 | 0.89 | 0.05 | 72 | 1017.5 |
| 20260904175800 | 18 | 292 | 8.0 | 16.1 | 0.00 | 0.89 | 0.05 | 72 | 1017.4 |
| 20260904175259 | 18 | 293 | 9.7 | 20.9 | 0.00 | 0.89 | 0.05 | 71 | 1017.4 |
| 20260904174259 | 18 | 282 | 9.7 | 16.1 | 0.00 | 0.89 | 0.05 | 71 | 1017.4 |
| 20260904173800 | 18 | 292 | 6.4 | 14.5 | 0.00 | 0.89 | 0.05 | 71 | 1017.3 |
| 20260904173300 | 18 | 279 | 8.0 | 16.1 | 0.00 | 0.89 | 0.05 | 72 | 1017.3 |
| 20260904172259 | 18 | 287 | 3.2 | 14.5 | 0.00 | 0.89 | 0.05 | 73 | 1017.2 |
| 20260904171800 | 18 | 276 | 8.0 | 11.3 | 0.00 | 0.89 | 0.05 | 73 | 1017.2 |
| 20260904171259 | 18 | 291 | 9.7 | 14.5 | 0.00 | 0.89 | 0.05 | 72 | 1017.2 |
| 20260904170301 | 18 | 276 | 4.8 | 16.1 | 0.00 | 0.89 | 0.05 | 74 | 1017.1 |
| 20260904165759 | 18 | 291 | 8.0 | 16.1 | 0.00 | 0.89 | 0.05 | 74 | 1017.0 |
| 20260904164807 | 17 | 277 | 8.0 | 16.1 | 0.00 | 0.89 | 0.05 | 75 | 1016.9 |
| 20260904164306 | 17 | 278 | 6.4 | 19.3 | 0.00 | 0.89 | 0.05 | 75 | 1016.9 |
| 20260904163300 | 17 | 295 | 4.8 | 11.3 | 0.00 | 0.89 | 0.05 | 77 | 1016.7 |
| 20260904162805 | 17 | 284 | 9.7 | 14.5 | 0.00 | 0.89 | 0.05 | 76 | 1016.7 |
| 20260904162305 | 17 | 286 | 9.7 | 16.1 | 0.00 | 0.89 | 0.05 | 75 | 1016.6 |
| 20260904161759 | 17 | 287 | 8.0 | 14.5 | 0.00 | 0.89 | 0.05 | 74 | 1016.5 |
| 20260904160800 | 18 | 279 | 9.7 | 22.5 | 0.00 | 0.89 | 0.05 | 73 | 1016.4 |
| 20260904160300 | 18 | 293 | 8.0 | 19.3 | 0.00 | 0.89 | 0.05 | 73 | 1016.4 |
| 20260904155800 | 18 | 290 | 11.3 | 20.9 | 0.00 | 0.89 | 0.05 | 72 | 1016.3 |
| 20260904154300 | 17 | 284 | 9.7 | 16.1 | 0.00 | 0.89 | 0.05 | 73 | 1016.3 |
| 20260904153800 | 17 | 282 | 11.3 | 19.3 | 0.00 | 0.89 | 0.05 | 73 | 1016.2 |
| 20260904152800 | 17 | 288 | 9.7 | 20.9 | 0.00 | 0.89 | 0.05 | 73 | 1016.3 |
| 20260904152300 | 17 | 279 | 11.3 | 24.1 | 0.00 | 0.89 | 0.05 | 74 | 1016.2 |
| 20260904151801 | 18 | 285 | 9.7 | 20.9 | 0.00 | 0.89 | 0.05 | 75 | 1016.2 |
| 20260904151302 | 18 | 263 | 8.0 | 11.3 | 0.00 | 0.89 | 0.05 | 75 | 1016.2 |
| 20260904150800 | 18 | 294 | 8.0 | 19.3 | 0.00 | 0.89 | 0.05 | 77 | 1016.0 |
| 20260904145800 | 17 | 289 | 8.0 | 16.1 | 0.00 | 0.89 | 0.05 | 77 | 1016.1 |
| 20260904145300 | 18 | 273 | 12.9 | 20.9 | 0.00 | 0.89 | 0.05 | 74 | 1015.9 |
| 20260904144801 | 18 | 279 | 9.7 | 20.9 | 0.00 | 0.89 | 0.05 | 74 | 1015.8 |
| 20260904144300 | 18 | 293 | 11.3 | 22.5 | 0.00 | 0.89 | 0.05 | 75 | 1015.8 |
| 20260904143801 | 17 | 286 | 8.0 | 14.5 | 0.00 | 0.89 | 0.05 | 77 | 1015.8 |
| 20260904143300 | 17 | 287 | 3.2 | 9.7 | 0.00 | 0.89 | 0.05 | 80 | 1015.8 |
| 20260904142802 | 17 | 275 | 3.2 | 9.7 | 0.00 | 0.89 | 0.05 | 79 | 1015.8 |
| 20260904142300 | 17 | 284 | 3.2 | 12.9 | 0.00 | 0.89 | 0.05 | 79 | 1015.7 |
| 20260904141301 | 17 | 283 | 9.7 | 16.1 | 0.00 | 0.89 | 0.05 | 78 | 1015.7 |
| 20260904140800 | 17 | 282 | 9.7 | 22.5 | 0.00 | 0.89 | 0.05 | 77 | 1015.7 |
| 20260904140301 | 17 | 288 | 9.7 | 12.9 | 0.00 | 0.89 | 0.05 | 77 | 1015.6 |
| 20260904135801 | 17 | 284 | 4.8 | 9.7 | 0.00 | 0.89 | 0.05 | 78 | 1015.6 |
| 20260904134802 | 17 | 287 | 8.0 | 11.3 | 0.00 | 0.89 | 0.05 | 77 | 1015.6 |
| 20260904134301 | 17 | 293 | 4.8 | 11.3 | 0.00 | 0.89 | 0.05 | 76 | 1015.6 |
| 20260904133801 | 17 | 308 | 1.6 | 9.7 | 0.00 | 0.89 | 0.05 | 77 | 1015.7 |
| 20260904133300 | 17 | 300 | 3.2 | 9.7 | 0.00 | 0.89 | 0.05 | 76 | 1015.7 |
| 20260904132802 | 17 | 291 | 4.8 | 16.1 | 0.00 | 0.89 | 0.05 | 76 | 1015.7 |
| 20260904131801 | 17 | 294 | 6.4 | 11.3 | 0.00 | 0.89 | 0.05 | 74 | 1015.6 |
| 20260904131301 | 17 | 288 | 4.8 | 20.9 | 0.00 | 0.89 | 0.05 | 74 | 1015.5 |
| 20260904130802 | 17 | 280 | 6.4 | 20.9 | 0.00 | 0.89 | 0.05 | 76 | 1015.5 |
| 20260904130300 | 17 | 289 | 9.7 | 22.5 | 0.00 | 0.89 | 0.05 | 76 | 1015.4 |
| 20260904125801 | 17 | 272 | 3.2 | 14.5 | 0.00 | 0.89 | 0.05 | 77 | 1015.3 |
| 20260904125305 | 17 | 295 | 11.3 | 20.9 | 0.00 | 0.89 | 0.05 | 76 | 1015.2 |
| 20260904124803 | 17 | 304 | 9.7 | 22.5 | 0.00 | 0.89 | 0.05 | 75 | 1015.1 |
| 20260904124301 | 17 | 299 | 9.7 | 22.5 | 0.00 | 0.89 | 0.05 | 75 | 1015.1 |
| 20260904123801 | 17 | 277 | 11.3 | 24.1 | 0.00 | 0.89 | 0.05 | 73 | 1014.9 |
| 20260904123302 | 17 | 286 | 6.4 | 24.1 | 0.00 | 0.89 | 0.05 | 74 | 1014.9 |
| 20260904122306 | 17 | 293 | 9.7 | 20.9 | 0.00 | 0.89 | 0.05 | 73 | 1014.8 |
| 20260904121801 | 17 | 278 | 9.7 | 22.5 | 0.00 | 0.89 | 0.05 | 75 | 1014.8 |
| 20260904121301 | 17 | 294 | 6.4 | 14.5 | 0.00 | 0.89 | 0.05 | 75 | 1014.7 |
| 20260904120302 | 18 | 281 | 8.0 | 19.3 | 0.00 | 0.89 | 0.05 | 72 | 1014.7 |
| 20260904115802 | 18 | 299 | 9.7 | 20.9 | 0.00 | 0.89 | 0.05 | 72 | 1014.6 |
| 20260904115306 | 17 | 288 | 6.4 | 14.5 | 0.00 | 0.89 | 0.05 | 74 | 1014.6 |
| 20260904114802 | 17 | 277 | 11.3 | 22.5 | 0.00 | 0.89 | 0.05 | 74 | 1014.6 |
| 20260904113802 | 17 | 296 | 11.3 | 24.1 | 0.00 | 0.89 | 0.05 | 74 | 1014.4 |
| 20260904113303 | 17 | 291 | 11.3 | 27.4 | 0.00 | 0.89 | 0.05 | 73 | 1014.3 |
| 20260904112803 | 17 | 302 | 9.7 | 27.4 | 0.00 | 0.89 | 0.05 | 74 | 1014.5 |
| 20260904112305 | 17 | 270 | 9.7 | 20.9 | 0.00 | 0.89 | 0.05 | 74 | 1014.6 |
| 20260904111803 | 17 | 290 | 11.3 | 25.7 | 0.00 | 0.89 | 0.05 | 74 | 1014.3 |
| 20260904110802 | 17 | 282 | 11.3 | 20.9 | 0.00 | 0.89 | 0.05 | 75 | 1014.2 |
| 20260904110302 | 17 | 280 | 14.5 | 24.1 | 0.00 | 0.89 | 0.05 | 76 | 1014.1 |
| 20260904105305 | 16 | 287 | 12.9 | 22.5 | 0.00 | 0.89 | 0.05 | 76 | 1013.9 |
| 20260904104302 | 16 | 287 | 9.7 | 22.5 | 0.00 | 0.89 | 0.05 | 76 | 1014.0 |
| 20260904103803 | 16 | 294 | 11.3 | 20.9 | 0.00 | 0.89 | 0.05 | 76 | 1014.0 |
| 20260904103303 | 16 | 287 | 11.3 | 25.7 | 0.00 | 0.89 | 0.05 | 75 | 1013.9 |
| 20260904102306 | 16 | 279 | 14.5 | 29.0 | 0.00 | 0.89 | 0.05 | 75 | 1013.8 |
| 20260904101302 | 16 | 285 | 9.7 | 19.3 | 0.00 | 0.89 | 0.05 | 76 | 1013.7 |
| 20260904100803 | 16 | 286 | 9.7 | 22.5 | 0.00 | 0.89 | 0.05 | 76 | 1013.7 |
| 20260904100305 | 16 | 290 | 12.9 | 22.5 | 0.00 | 0.89 | 0.05 | 75 | 1013.7 |
| 20260904095306 | 16 | 292 | 9.7 | 24.1 | 0.00 | 0.89 | 0.05 | 76 | 1013.7 |
| 20260904094803 | 16 | 296 | 11.3 | 22.5 | 0.00 | 0.89 | 0.05 | 77 | 1013.7 |
| 20260904094303 | 16 | 290 | 11.3 | 22.5 | 0.00 | 0.89 | 0.05 | 76 | 1013.6 |
| 20260904093804 | 16 | 292 | 17.7 | 29.0 | 0.00 | 0.89 | 0.05 | 76 | 1013.5 |
| 20260904093304 | 16 | 277 | 14.5 | 25.7 | 0.00 | 0.89 | 0.05 | 76 | 1013.4 |
| 20260904092803 | 16 | 284 | 11.3 | 19.3 | 0.00 | 0.89 | 0.05 | 77 | 1013.3 |
| 20260904092306 | 15 | 288 | 11.3 | 22.5 | 0.00 | 0.89 | 0.05 | 78 | 1013.2 |
| 20260904091805 | 15 | 294 | 11.3 | 16.1 | 0.00 | 0.89 | 0.05 | 78 | 1013.1 |
| 20260904091303 | 15 | 282 | 12.9 | 25.7 | 0.00 | 0.89 | 0.05 | 78 | 1013.2 |
| 20260904090803 | 15 | 278 | 11.3 | 19.3 | 0.00 | 0.89 | 0.05 | 78 | 1013.0 |
| 20260904090304 | 15 | 279 | 12.9 | 14.5 | 0.00 | 0.89 | 0.05 | 77 | 1013.0 |
| 20260904085803 | 15 | 269 | 14.5 | 22.5 | 0.00 | 0.89 | 0.05 | 77 | 1013.0 |
| 20260904085305 | 15 | 288 | 14.5 | 19.3 | 0.00 | 0.89 | 0.05 | 78 | 1013.0 |
| 20260904084805 | 15 | 286 | 11.3 | 20.9 | 0.00 | 0.89 | 0.05 | 79 | 1013.0 |
| 20260904083804 | 15 | 296 | 8.0 | 25.7 | 0.00 | 0.89 | 0.05 | 79 | 1012.7 |
| 20260904082804 | 15 | 286 | 11.3 | 20.9 | 0.00 | 0.89 | 0.05 | 78 | 1012.6 |
| 20260904082305 | 15 | 296 | 14.5 | 25.7 | 0.00 | 0.89 | 0.05 | 78 | 1012.3 |
| 20260904081805 | 15 | 288 | 16.1 | 27.4 | 0.00 | 0.89 | 0.05 | 78 | 1012.3 |
| 20260904081303 | 15 | 290 | 11.3 | 22.5 | 0.00 | 0.89 | 0.05 | 78 | 1012.4 |
| 20260904080805 | 15 | 290 | 12.9 | 22.5 | 0.00 | 0.89 | 0.05 | 78 | 1012.2 |
| 20260904080304 | 15 | 281 | 11.3 | 19.3 | 0.00 | 0.89 | 0.05 | 78 | 1012.3 |
| 20260904075804 | 15 | 286 | 11.3 | 24.1 | 0.00 | 0.89 | 0.05 | 77 | 1012.2 |
| 20260904074805 | 15 | 284 | 9.7 | 19.3 | 0.00 | 0.89 | 0.05 | 78 | 1012.2 |
| 20260904073803 | 15 | 290 | 9.7 | 20.9 | 0.00 | 0.89 | 0.05 | 78 | 1012.1 |
| 20260904072804 | 15 | 282 | 9.7 | 19.3 | 0.00 | 0.89 | 0.05 | 79 | 1012.1 |